This demonstration page uses our WeatherBlox Daily Observations layout. Learn more.

Left ArrowRight Arrow

38.89511, -77.03637

Hourly Observations for February 18, 2017

Temp ( °F °C ) Dew Point ( °F °C ) Humidity (%) Winds ( mph kmh ) Pressure ( in mb ) Visibility ( mi km ) Precip ( " mm )
12:52 am 00:52 Clear 38 3.3 29 -1.7 70 70 NE 7 11 29.91 1013 10 16 0.00 0.00
1:52 am 01:52 Mostly Clear 37 2.8 28 -2.2 70 70 ENE 3 6 29.90 1013 10 16 0.00 0.00
2:52 am 02:52 Clear 36 2.2 28 -2.2 73 73 ENE 5 7 29.90 1012 10 16 0.00 0.00
3:52 am 03:52 Clear 36 2.2 28 -2.2 73 73 Calm 29.90 1012 10 16 0.00 0.00
4:52 am 04:52 Clear 35 1.7 29 -1.7 78 78 NNE 5 7 29.88 1012 10 16 0.00 0.00
5:52 am 05:52 Clear 33 0.6 28 -2.2 82 82 WSW 5 7 29.89 1012 10 16 0.00 0.00
6:52 am 06:52 Mostly Clear 34 1.1 28 -2.2 79 79 SW 6 9 29.91 1013 10 16 0.00 0.00
7:52 am 07:52 Partly Cloudy 37 2.8 29 -1.7 73 73 S 6 9 29.93 1013 10 16 0.00 0.00
8:52 am 08:52 Partly Cloudy 40 4.4 31 -0.6 70 70 S 6 9 29.91 1013 10 16 0.00 0.00
9:52 am 09:52 Partly Cloudy 44 6.7 32 0 63 63 S 7 11 29.89 1012 10 16 0.00 0.00
10:52 am 10:52 Mostly Cloudy 48 8.9 32 0 54 54 S 9 15 29.88 1012 10 16 0.00 0.00
11:52 am 11:52 Mostly Cloudy 56 13.3 33 0.6 42 42 S 10 17 29.86 1011 10 16 0.00 0.00
12:52 pm 12:52 Mostly Cloudy 57 13.9 33 0.6 41 41 S 10 17 29.80 1009 10 16 0.00 0.00
1:52 pm 13:52 Mostly Cloudy 65 18.3 34 1.1 32 32 S 8 13 29.78 1008 10 16 0.00 0.00
2:52 pm 14:52 Mostly Cloudy 63 17.2 33 0.6 33 33 S 12 19 29.75 1007 10 16 0.00 0.00
3:52 pm 15:52 Cloudy 63 17.2 35 1.7 35 35 S 12 19 29.75 1008 10 16 0.00 0.00
4:52 pm 16:52 Cloudy 62 16.7 36 2.2 38 38 S 9 15 29.75 1007 10 16 0.00 0.00
5:52 pm 17:52 Cloudy 57 13.9 35 1.7 44 44 S 10 17 29.76 1008 10 16 0.00 0.00
6:52 pm 18:52 Cloudy 57 13.9 35 1.7 44 44 S 8 13 29.77 1008 10 16 0.00 0.00
7:52 pm 19:52 Cloudy 58 14.4 33 0.6 39 39 S 7 11 29.77 1008 10 16 0.00 0.00
8:52 pm 20:52 Mostly Cloudy 57 13.9 38 3.3 49 49 SSW 6 9 29.77 1008 10 16 0.00 0.00
9:52 pm 21:52 Mostly Cloudy 58 14.4 35 1.7 42 42 SW 3 6 29.78 1009 10 16 0.00 0.00
10:52 pm 22:52 Cloudy 59 15 35 1.7 41 41 Calm 29.78 1008 10 16 0.00 0.00
11:52 pm 23:52 Cloudy 55 12.8 37 2.8 51 51 S 9 15 29.79 1009 10 16 0.00 0.00

Powered by AerisWeather